User: anonymous   Login
Location: Unspecified
(0.0000°N, 0.0000°E)
Time: 09:01:18
(UTC+00:00)
Language:

STARLINK-6304 - Orbit

View from above orbital plane
View from above orbital plane
View from above satellite
View from above satellite

Ground track
Ground track

The orbit is defined by the following mean orbital elements,

1 56778U          26145.35684786 +.00000000 +00000-0 +62141-5 0 00000
2 56778  69.9987 131.3083 0003568 267.7270  92.3480 14.98331529    06
Epoch (UTC): 25 May 2026 08:33:51
Eccentricity: 0.0003568
inclination: 69.9987°
perigee height: 570 km
apogee height: 575 km
right ascension of ascending node: 131.3083°
argument of perigee: 267.7270°
revolutions per day: 14.98331529
mean anomaly at epoch: 92.3480°

The dashed part of the orbit path shows where the satellite is in the earth's shadow,  

DLR